Aberdeen, United Kingdom

8:21 AM BST on October 01, 2016 (GMT +0100)
Dyce

Weather History for EGPD - December, 2012

Change the Weather History Date:

Wednesday, December 26, 2012

  Actual Average Record
Temperature  
Mean Temperature 34 °F -  
Max Temperature 40 °F 40 °F 57 °F (2011)
Min Temperature 28 °F 31 °F 17 °F (2010)
Degree Days  
Heating Degree Days 31    
Moisture  
Dew Point 33 °F    
Average Humidity 87    
Maximum Humidity 100    
Minimum Humidity 71    
Precipitation  
Precipitation 0.00 in - - ()
Sea Level Pressure  
Sea Level Pressure 29.37 in    
Wind  
Wind Speed 7 mph ()    
Max Wind Speed 13 mph    
Max Gust Speed -    
Visibility 7.9 miles    
Events Rain    
Averages and records for this station are not official NWS values.
T = Trace of Precipitation, MM = Missing Value Source: Averaged Metar Reports

Daily Weather History Graph

Daily Weather History Graph

Search for Another Location

Airport or City:

Trip Planner

Search our weather history database for the weather conditions in past years. The results will help you decide how hot, cold, wet, or windy it might be!

Date:

Astronomy

Dec. 26, 2012 Rise Set
Actual Time 8:48 AM GMT 3:30 PM GMT
Civil Twilight 7:58 AM GMT 4:20 PM GMT
Nautical Twilight 7:07 AM GMT 5:11 PM GMT
Astronomical Twilight 6:20 AM GMT 5:58 PM GMT
Moon 2:19 PM GMT (12/26) 6:52 AM GMT (12/26)
Length of Visible Light 8h 21m
Length of Day
6h 41m
Waxing Gibbous, 97% of the Moon is Illuminated
Dec 26
Waxing Gibbous
Dec 28
Full
Jan 5
Last Quarter
Jan 11
New
Jan 18
First Quarter

Hourly Weather History & Observations

Time (GMT) Temp. Windchill Dew Point Humidity Pressure Visibility Wind Dir Wind Speed Gust Speed Precip Events Conditions
12:20 AM 41.0 °F 34.7 °F 37.4 °F 87% 29.21 in 6.2 mi West 10.4 mph - N/A   Mostly Cloudy
12:50 AM 41.0 °F 34.7 °F 35.6 °F 81% 29.24 in 6.2 mi WNW 10.4 mph - N/A   Mostly Cloudy
1:20 AM 41.0 °F 35.2 °F 37.4 °F 87% 29.24 in 6.2 mi West 9.2 mph - N/A   Mostly Cloudy
1:50 AM 41.0 °F 35.2 °F 35.6 °F 81% 29.24 in 6.2 mi West 9.2 mph - N/A   Scattered Clouds
2:20 AM 41.0 °F 35.2 °F 35.6 °F 81% 29.27 in 6.2 mi West 9.2 mph - N/A   Overcast
2:50 AM 41 °F - 36 °F 77% 29.28 in 31 mi West 9.2 mph - -   Partly Cloudy
2:50 AM 41.0 °F 35.2 °F 35.6 °F 81% 29.27 in 6.2 mi West 9.2 mph - N/A   Mostly Cloudy
3:20 AM 41.0 °F 35.8 °F 35.6 °F 81% 29.27 in 6.2 mi West 8.1 mph - N/A   Mostly Cloudy
3:50 AM 41.0 °F 35.2 °F 35.6 °F 81% 29.27 in 6.2 mi West 9.2 mph - N/A   Scattered Clouds
4:20 AM 39.2 °F 33.0 °F 35.6 °F 87% 29.30 in 6.2 mi WNW 9.2 mph - N/A   Partly Cloudy
4:50 AM 39.2 °F 31.6 °F 37.4 °F 93% 29.30 in 6.2 mi NW 12.7 mph - N/A   Drizzle
5:20 AM 39.2 °F 35.0 °F 37.4 °F 93% 29.33 in 6.2 mi WNW 5.8 mph - N/A   Scattered Clouds
5:50 AM 40 °F - 37 °F 83% 29.34 in 22 mi WNW 9.2 mph - - Rain Rain
5:50 AM 39.2 °F 34.2 °F 37.4 °F 93% 29.33 in 6.2 mi WNW 6.9 mph - N/A   Scattered Clouds
6:20 AM 39.2 °F 33.6 °F 35.6 °F 87% 29.33 in 6.2 mi NW 8.1 mph - N/A   Mostly Cloudy
6:50 AM 39.2 °F 33.6 °F 35.6 °F 87% 29.33 in 6.2 mi WNW 8.1 mph - N/A   Mostly Cloudy
7:20 AM 39.2 °F 33.6 °F 33.8 °F 81% 29.36 in 6.2 mi NW 8.1 mph - N/A   Mostly Cloudy
7:50 AM 37.4 °F 31.4 °F 33.8 °F 87% 29.36 in 6.2 mi WNW 8.1 mph - N/A   Mostly Cloudy
8:20 AM 37.4 °F 31.4 °F 33.8 °F 87% 29.39 in - WNW 8.1 mph - N/A   Clear
8:50 AM 38 °F - 34 °F 78% 29.42 in 19 mi WNW 10.4 mph - -   Mostly Cloudy
8:50 AM 37.4 °F 30.8 °F 33.8 °F 87% 29.39 in - WNW 9.2 mph - N/A   Clear
9:20 AM 37.4 °F 32.8 °F 33.8 °F 87% 29.42 in 6.2 mi NNW 5.8 mph - N/A   Scattered Clouds
9:50 AM 37.4 °F 32.8 °F 33.8 °F 87% 29.42 in 6.2 mi WNW 5.8 mph - N/A   Partly Cloudy
10:20 AM 37.4 °F 32.1 °F 33.8 °F 87% 29.42 in - WNW 6.9 mph - N/A   Clear
10:50 AM 37.4 °F 32.1 °F 33.8 °F 87% 29.42 in - NW 6.9 mph - N/A   Clear
11:20 AM 39.2 °F 33.6 °F 33.8 °F 81% 29.42 in - WNW 8.1 mph - N/A   Clear
11:50 AM 39 °F - 33 °F 71% 29.43 in 19 mi NW 8.1 mph - -   Partly Cloudy
11:50 AM 39.2 °F 35.0 °F 33.8 °F 81% 29.42 in - NW 5.8 mph - N/A   Clear
12:20 PM 39.2 °F 37.0 °F 33.8 °F 81% 29.42 in - Variable 3.5 mph - N/A   Clear
12:50 PM 39.2 °F 35.0 °F 33.8 °F 81% 29.42 in - West 5.8 mph - N/A   Clear
1:20 PM 39.2 °F 35.0 °F 33.8 °F 81% 29.42 in - West 5.8 mph - N/A   Clear
1:50 PM 37.4 °F 32.8 °F 32.0 °F 81% 29.42 in - WNW 5.8 mph - N/A   Clear
2:20 PM 37.4 °F 34.9 °F 32.0 °F 81% 29.42 in - West 3.5 mph - N/A   Clear
2:50 PM 36 °F - 31 °F 76% 29.43 in 19 mi West 3.5 mph - -  
2:50 PM 35.6 °F 31.7 °F 32.0 °F 87% 29.42 in - WSW 4.6 mph - N/A   Clear
3:20 PM 33.8 °F - 32.0 °F 93% 29.42 in - NNW 2.3 mph - N/A   Clear
3:50 PM 32.0 °F - 30.2 °F 93% 29.39 in - Variable 2.3 mph - N/A   Clear
4:20 PM 32.0 °F - 30.2 °F 93% 29.39 in - NW 2.3 mph - N/A   Clear
4:50 PM 32.0 °F 27.5 °F 30.2 °F 93% 29.39 in - North 4.6 mph - N/A   Clear
5:20 PM 32.0 °F 28.7 °F 28.4 °F 87% 29.39 in - West 3.5 mph - N/A   Clear
5:50 PM 30 °F - 28 °F 89% 29.41 in 12 mi North 5.8 mph - -  
5:50 PM 30.2 °F 25.4 °F 28.4 °F 93% 29.39 in - North 4.6 mph - N/A   Clear
6:20 PM 30.2 °F - 28.4 °F 93% 29.39 in - NNW 2.3 mph - N/A   Clear
6:50 PM 30.2 °F - 28.4 °F 93% 29.39 in - Calm Calm - N/A   Clear
7:20 PM 28.4 °F 24.6 °F 28.4 °F 100% 29.39 in 6.2 mi NW 3.5 mph - N/A   Scattered Clouds
7:50 PM 30.2 °F 24.3 °F 30.2 °F 100% 29.39 in 6.2 mi NNW 5.8 mph - N/A   Scattered Clouds
8:20 PM 30.2 °F 23.4 °F 30.2 °F 100% 29.39 in 6.2 mi North 6.9 mph - N/A   Scattered Clouds
8:50 PM 30 °F - 28 °F 88% 29.41 in 15 mi North 6.9 mph - -   Scattered Clouds
8:50 PM 30.2 °F 24.3 °F 30.2 °F 100% 29.39 in 6.2 mi North 5.8 mph - N/A   Partly Cloudy
9:20 PM 32.0 °F 25.6 °F 30.2 °F 93% 29.39 in 6.2 mi North 6.9 mph - N/A   Partly Cloudy
9:50 PM 32.0 °F 23.6 °F 30.2 °F 93% 29.39 in 6.2 mi NNW 10.4 mph - N/A   Partly Cloudy
10:20 PM 33.8 °F 27.0 °F 32.0 °F 93% 29.39 in - North 8.1 mph - N/A   Clear
10:50 PM 33.8 °F 26.4 °F 32.0 °F 93% 29.39 in 6.2 mi North 9.2 mph - N/A   Scattered Clouds
11:20 PM 35.6 °F 32.8 °F 32.0 °F 87% 29.39 in 6.2 mi Variable 3.5 mph - N/A   Mostly Cloudy
11:50 PM 35 °F - 32 °F 83% 29.42 in 22 mi NNE 10.4 mph - -   Scattered Clouds
11:50 PM 35.6 °F 28.6 °F 32.0 °F 87% 29.42 in 6.2 mi North 9.2 mph - N/A   Mostly Cloudy